User: anonymous   Login
Location: Dover
(39.1580°N, 75.5250°W)
Time: 23:06:36
(UTC-05:00)
Language:

SeaSat 1 - Orbit

View from above orbital plane
View from above orbital plane
View from above satellite
View from above satellite

Ground track
Ground track

The orbit data is extracted from the following two-line orbital elements,

1 10967U 78064A   15030.68007031  .00000328  00000-0  13778-3 0  4977
2 10967 107.9912 285.7373 0002842 295.1815 133.9302 14.43259660921290
Epoch (UTC): 30 January 2015 16:19:18
Eccentricity: 0.0002842
inclination: 107.9912°
perigee height: 746 km
apogee height: 750 km
right ascension of ascending node: 285.7373°
argument of perigee: 295.1815°
revolutions per day: 14.43259660
mean anomaly at epoch: 133.9302°
orbit number at epoch: 92129

The dashed part of the orbit path shows where the satellite is in the earth's shadow,  

DLR